Find Starlink 2414

NORAD ID: 48095 Int'l Des: 2021-027 Owner: SPXS Country: US Constellation: starlink operational
LEOCIRCULAR

リアルタイム位置

3D地球を読み込み中...

Starlink 2414について

説明を読み込み中...

次回通過

Passes for default location (London). Set your location on the main map for personalized predictions.

高度履歴

Loading altitude history...

軌道要素

1 48095U 21027D 26124.56535940 -.00000364 00000-0 45195-7 0 9995
2 48095 53.1615 265.6731 0001434 94.3101 265.8064 15.31701256281080
Epoch: May 4, 2026 • Age: 27 hours

現在のステータス

高度 471.8 km
速度 7.63 km/s
衛星直下点 30.70°N, 61.46°W
打ち上げ日 Apr 7, 2021
運用期間 5 years
タイプ internet

技術仕様

分類 Payload
質量 260.00 kg
乾燥質量 248.00 kg
総質量 260.00 kg
長さ 0.20 m
直径 2.80 m
スパン 9.00 m
形状 Box + pan
製造者 SPXS
バスタイプ Starlink
フェーズステータス In Orbit
所有者/国 SPXS/US

Most Searched